Вернуться в каталог

STARLINK-33934

АктивенСвязьVLEO
NORAD 64187·PAYLOAD·🇺🇸 United States

Запущен May 28, 2025 с Cape Canaveral Space Force Station

Loading…

Ближайшие Пролёты (ближайшие 24 часа)

TLE

СвежийSource: CelesTrak SupGP

Эпоха: Sep 15, 2026, 03:18 UTC

1 64187C 25113T   26258.13798611  .00006991  00000+0  20648-3 0  2582
2 64187  53.1581 290.7000 0001361  98.4547  23.4070 15.34398238    10

Отслеживайте STARLINK-33934 в реальном времени с AllMySat

Download on the App Store